QPF
0.00 0.00 0.00 0.00 0.00 0.00 0.00 0.00 0.01 0.00 0.00 0.00 0.00 0.00 0.00 0.00 0.00 0.00 0.00 0.00 0.00 0.00 0.00 0.00 0.00 0.00 0.00 0.00 0.00 0.00 0.00 0.00 0.00 0.01 0.01 0.01 0.01 0.01 0.01 0.01 0.02 0.01 0.01 0.01
0.00 0.00 0.00 0.00 0.00 0.00 0.00 0.00 0.00 0.00 0.00 0.00 0.00 0.00 0.00 0.00 0.00 0.00 0.00 0.00 0.00 0.00 0.00 0.00 0.00 0.00 0.00 0.00 0.00 0.00 0.00 0.00 0.00 0.00 0.01 0.01 0.01 0.01 0.01 0.01 0.02 0.02 0.02 0.02
0.00 0.00 0.00 0.00 0.00 0.00 0.00 0.00 0.00 0.00 0.00 0.00 0.00 0.00 0.00 0.00 0.00 0.00 0.00 0.00 0.00 0.00 0.00 0.00 0.00 0.00 0.00 0.00 0.00 0.00 0.00 0.00 0.00 0.00 0.01 0.01 0.01 0.01 0.01 0.02 0.02 0.02 0.02 0.02
0.01 0.00 0.00 0.00 0.00 0.00 0.00 0.00 0.00 0.00 0.00 0.00 0.00 0.00 0.00 0.00 0.00 0.00 0.00 0.00 0.00 0.00 0.00 0.00 0.00 0.00 0.00 0.00 0.00 0.00 0.00 0.00 0.00 0.00 0.01 0.01 0.01 0.01 0.01 0.02 0.02 0.02 0.02 0.02
0.01 0.01 0.00 0.00 0.00 0.00 0.00 0.00 0.00 0.00 0.00 0.00 0.00 0.00 0.00 0.00 0.00 0.00 0.00 0.00 0.00 0.00 0.00 0.00 0.00 0.00 0.00 0.00 0.00 0.00 0.00 0.00 0.00 0.00 0.00 0.01 0.00 0.01 0.00 0.01 0.01 0.02 0.02 0.02
0.02 0.02 0.01 0.00 0.00 0.00 0.00 0.01 0.00 0.00 0.00 0.00 0.00 0.00 0.00 0.00 0.00 0.00 0.00 0.00 0.00 0.00 0.00 0.00 0.00 0.00 0.00 0.00 0.00 0.00 0.00 0.00 0.00 0.00 0.00 0.00 0.01 0.00 0.00 0.01 0.01 0.01 0.02 0.01
0.01 0.02 0.01 0.00 0.00 0.00 0.01 0.01 0.00 0.00 0.00 0.00 0.00 0.00 0.00 0.00 0.00 0.00 0.00 0.00 0.00 0.00 0.00 0.00 0.00 0.00 0.00 0.00 0.00 0.00 0.00 0.00 0.00 0.00 0.00 0.00 0.01 0.01 0.01 0.01 0.01 0.01 0.01 0.01
0.01 0.02 0.01 0.01 0.00 0.00 0.00 0.00 0.00 0.00 0.00 0.01 0.01 0.00 0.00 0.00 0.00 0.00 0.00 0.00 0.00 0.00 0.00 0.00 0.00 0.00 0.00 0.00 0.00 0.00 0.00 0.00 0.00 0.00 0.00 0.00 0.00 0.00 0.00 0.00 0.00 0.00 0.01 0.01
0.02 0.01 0.01 0.01 0.01 0.00 0.00 0.00 0.01 0.01 0.01 0.01 0.01 0.00 0.00 0.00 0.00 0.00 0.00 0.00 0.00 0.00 0.00 0.00 0.00 0.00 0.00 0.00 0.00 0.00 0.00 0.00 0.00 0.00 0.00 0.00 0.00 0.00 0.00 0.00 0.00 0.00 0.01 0.01
0.01 0.00 0.00 0.00 0.01 0.01 0.01 0.01 0.01 0.01 0.01 0.01 0.01 0.01 0.00 0.00 0.00 0.00 0.00 0.00 0.00 0.00 0.00 0.00 0.00 0.00 0.00 0.00 0.00 0.00 0.00 0.00 0.00 0.00 0.00 0.00 0.00 0.00 0.00 0.00 0.00 0.00 0.01 0.01
0.01 0.01 0.01 0.01 0.01 0.01 0.01 0.01 0.01 0.01 0.01 0.01 0.01 0.01 0.01 0.01 0.01 0.00 0.00 0.00 0.00 0.00 0.00 0.00 0.00 0.00 0.00 0.00 0.00 0.00 0.00 0.00 0.00 0.00 0.00 0.00 0.00 0.00 0.00 0.00 0.00 0.00 0.01 0.01
0.03 0.02 0.02 0.01 0.01 0.01 0.01 0.01 0.00 0.00 0.00 0.00 0.00 0.00 0.00 0.00 0.00 0.00 0.00 0.00 0.00 0.00 0.00 0.00 0.00 0.00 0.00 0.00 0.00 0.00 0.00 0.00 0.00 0.00 0.00 0.00 0.00 0.00 0.00 0.00 0.00 0.00 0.01 0.01
0.01 0.00 0.00 0.01 0.01 0.00 0.00 0.00 0.00 0.00 0.00 0.00 0.00 0.00 0.00 0.00 0.00 0.00 0.00 0.00 0.00 0.00 0.00 0.00 0.00 0.00 0.00 0.00 0.00 0.00 0.00 0.00 0.00 0.00 0.00 0.00 0.00 0.00 0.00 0.00 0.00 0.00 0.00 0.00
0.00 0.00 0.00 0.00 0.00 0.00 0.00 0.00 0.00 0.00 0.00 0.00 0.00 0.00 0.00 0.00 0.00 0.00 0.00 0.00 0.00 0.00 0.00 0.00 0.00 0.00 0.00 0.00 0.00 0.00 0.00 0.00 0.00 0.00 0.00 0.00 0.00 0.00 0.00 0.00 0.00 0.00 0.00 0.00
0.00 0.00 0.01 0.01 0.00 0.00 0.00 0.00 0.00 0.00 0.00 0.00 0.00 0.00 0.00 0.00 0.00 0.00 0.00 0.00 0.00 0.01 0.01 0.00 0.00 0.00 0.00 0.00 0.00 0.00 0.00 0.00 0.00 0.00 0.00 0.00 0.00 0.00 0.00 0.00 0.00 0.00 0.00 0.00
0.00 0.00 0.00 0.00 0.00 0.00 0.00 0.00 0.00 0.00 0.00 0.00 0.00 0.00 0.00 0.00 0.00 0.01 0.00 0.00 0.01 0.01 0.01 0.01 0.00 0.00 0.00 0.00 0.00 0.00 0.00 0.00 0.00 0.00 0.00 0.00 0.00 0.00 0.00 0.00 0.00 0.00 0.00 0.00
0.00 0.01 0.01 0.00 0.00 0.00 0.00 0.00 0.01 0.00 0.00 0.00 0.00 0.00 0.00 0.00 0.00 0.00 0.00 0.00 0.01 0.01 0.01 0.01 0.01 0.01 0.01 0.00 0.00 0.00 0.00 0.00 0.00 0.00 0.00 0.00 0.00 0.00 0.00 0.00 0.01 0.00 0.00 0.00
0.01 0.01 0.01 0.01 0.00 0.00 0.00 0.00 0.00 0.00 0.00 0.00 0.00 0.00 0.00 0.00 0.00 0.00 0.00 0.00 0.00 0.00 0.00 0.01 0.01 0.01 0.01 0.01 0.00 0.00 0.00 0.00 0.00 0.00 0.00 0.00 0.01 0.01 0.01 0.01 0.01 0.01 0.01 0.01
0.01 0.01 0.00 0.00 0.00 0.00 0.00 0.00 0.00 0.00 0.00 0.00 0.00 0.00 0.00 0.00 0.00 0.00 0.00 0.00 0.00 0.00 0.00 0.00 0.01 0.01 0.01 0.01 0.01 0.00 0.00 0.00 0.00 0.00 0.00 0.01 0.01 0.01 0.01 0.01 0.01 0.01 0.01 0.02
0.00 0.00 0.00 0.00 0.00 0.00 0.00 0.00 0.00 0.00 0.00 0.00 0.00 0.00 0.00 0.00 0.00 0.00 0.00 0.00 0.00 0.00 0.00 0.00 0.00 0.01 0.01 0.01 0.01 0.00 0.00 0.00 0.00 0.00 0.01 0.01 0.01 0.01 0.01 0.01 0.01 0.01 0.02 0.02
0.00 0.00 0.00 0.00 0.00 0.00 0.00 0.00 0.00 0.00 0.00 0.00 0.00 0.00 0.00 0.00 0.00 0.00 0.00 0.00 0.00 0.00 0.00 0.01 0.01 0.01 0.01 0.01 0.01 0.01 0.00 0.00 0.00 0.01 0.01 0.01 0.01 0.01 0.02 0.02 0.02 0.02 0.02 0.02
0.00 0.00 0.00 0.00 0.00 0.00 0.00 0.00 0.00 0.00 0.00 0.00 0.00 0.00 0.00 0.00 0.00 0.00 0.00 0.00 0.00 0.00 0.01 0.01 0.01 0.01 0.01 0.01 0.01 0.01 0.01 0.01 0.01 0.01 0.01 0.01 0.01 0.01 0.01 0.01 0.01 0.01 0.01 0.01
0.00 0.00 0.00 0.00 0.00 0.00 0.00 0.00 0.00 0.00 0.00 0.00 0.00 0.00 0.00 0.00 0.00 0.01 0.01 0.01 0.01 0.01 0.01 0.01 0.01 0.01 0.01 0.02 0.01 0.01 0.01 0.01 0.01 0.01 0.01 0.01 0.01 0.01 0.01 0.01 0.01 0.01 0.01 0.01
0.00 0.00 0.00 0.00 0.00 0.00 0.00 0.00 0.00 0.00 0.00 0.00 0.00 0.00 0.00 0.00 0.00 0.00 0.01 0.01 0.01 0.01 0.01 0.01 0.01 0.01 0.02 0.02 0.02 0.02 0.02 0.01 0.01 0.01 0.01 0.01 0.01 0.01 0.01 0.01 0.01 0.01 0.01 0.01
0.00 0.00 0.00 0.00 0.00 0.00 0.00 0.00 0.00 0.00 0.00 0.00 0.00 0.00 0.00 0.00 0.00 0.00 0.00 0.00 0.01 0.01 0.01 0.01 0.01 0.01 0.01 0.01 0.02 0.02 0.02 0.02 0.02 0.02 0.02 0.02 0.02 0.02 0.01 0.01 0.01 0.01 0.01 0.01
0.00 0.00 0.01 0.01 0.00 0.00 0.00 0.00 0.00 0.00 0.00 0.00 0.00 0.00 0.00 0.00 0.00 0.00 0.00 0.00 0.00 0.00 0.01 0.01 0.01 0.01 0.01 0.01 0.01 0.02 0.02 0.02 0.02 0.02 0.02 0.02 0.02 0.02 0.01 0.01 0.01 0.01 0.01 0.01
0.00 0.00 0.00 0.00 0.00 0.00 0.00 0.00 0.00 0.00 0.00 0.00 0.00 0.00 0.00 0.00 0.00 0.00 0.00 0.00 0.00 0.00 0.00 0.00 0.00 0.00 0.01 0.01 0.01 0.01 0.02 0.02 0.02 0.03 0.03 0.02 0.02 0.01 0.01 0.01 0.01 0.01 0.01 0.01
MSLP
1013.24 1013.31 1013.31 1013.24 1013.10 1012.90 1012.65 1012.36 1012.05 1011.77 1011.52 1011.35 1011.26 1011.28 1011.41 1011.62 1011.92 1012.26 1012.61 1012.96 1013.27 1013.53 1013.73 1013.88 1013.98 1014.05 1014.11 1014.16 1014.22 1014.29 1014.37 1014.46 1014.54 1014.62 1014.70 1014.77 1014.84 1014.92 1015.01 1015.13 1015.28 1015.45 1015.66 1015.89
1013.17 1013.12 1013.01 1012.81 1012.55 1012.23 1011.89 1011.54 1011.23 1010.96 1010.77 1010.69 1010.71 1010.83 1011.06 1011.36 1011.72 1012.10 1012.48 1012.84 1013.14 1013.40 1013.60 1013.74 1013.85 1013.93 1013.99 1014.04 1014.09 1014.15 1014.20 1014.25 1014.29 1014.33 1014.35 1014.38 1014.41 1014.46 1014.53 1014.63 1014.77 1014.93 1015.13 1015.34
1013.08 1012.93 1012.70 1012.38 1011.99 1011.58 1011.16 1010.77 1010.44 1010.21 1010.08 1010.07 1010.19 1010.42 1010.73 1011.11 1011.53 1011.95 1012.35 1012.71 1013.02 1013.28 1013.48 1013.63 1013.75 1013.84 1013.92 1013.98 1014.04 1014.09 1014.12 1014.14 1014.14 1014.13 1014.12 1014.11 1014.10 1014.12 1014.17 1014.25 1014.37 1014.51 1014.69 1014.88
1012.94 1012.70 1012.36 1011.93 1011.46 1010.97 1010.49 1010.08 1009.77 1009.57 1009.50 1009.57 1009.78 1010.09 1010.48 1010.92 1011.37 1011.82 1012.23 1012.60 1012.91 1013.17 1013.37 1013.55 1013.69 1013.81 1013.91 1013.99 1014.06 1014.10 1014.12 1014.12 1014.09 1014.04 1013.99 1013.94 1013.90 1013.89 1013.92 1013.97 1014.06 1014.19 1014.33 1014.48
1012.69 1012.37 1011.95 1011.47 1010.94 1010.41 1009.93 1009.53 1009.24 1009.09 1009.09 1009.23 1009.50 1009.88 1010.32 1010.79 1011.27 1011.72 1012.14 1012.50 1012.81 1013.08 1013.30 1013.49 1013.66 1013.81 1013.94 1014.05 1014.13 1014.17 1014.18 1014.16 1014.10 1014.02 1013.93 1013.85 1013.79 1013.75 1013.75 1013.78 1013.84 1013.93 1014.04 1014.14
1012.32 1011.94 1011.49 1010.98 1010.45 1009.94 1009.48 1009.13 1008.90 1008.81 1008.87 1009.08 1009.40 1009.81 1010.27 1010.76 1011.23 1011.68 1012.09 1012.44 1012.74 1013.01 1013.25 1013.47 1013.66 1013.84 1014.00 1014.13 1014.22 1014.27 1014.27 1014.22 1014.14 1014.03 1013.92 1013.80 1013.71 1013.65 1013.63 1013.63 1013.67 1013.72 1013.78 1013.84
1011.84 1011.43 1010.98 1010.49 1010.01 1009.56 1009.18 1008.91 1008.75 1008.74 1008.86 1009.11 1009.46 1009.89 1010.35 1010.82 1011.27 1011.69 1012.07 1012.41 1012.71 1012.98 1013.23 1013.46 1013.68 1013.89 1014.07 1014.21 1014.31 1014.35 1014.34 1014.28 1014.17 1014.04 1013.90 1013.76 1013.65 1013.57 1013.52 1013.50 1013.51 1013.53 1013.55 1013.57
1011.29 1010.89 1010.48 1010.06 1009.66 1009.32 1009.05 1008.87 1008.81 1008.87 1009.05 1009.33 1009.69 1010.10 1010.54 1010.97 1011.38 1011.76 1012.10 1012.41 1012.69 1012.96 1013.22 1013.46 1013.70 1013.93 1014.12 1014.28 1014.37 1014.41 1014.39 1014.31 1014.18 1014.02 1013.86 1013.70 1013.57 1013.48 1013.41 1013.38 1013.36 1013.36 1013.34 1013.32
1010.76 1010.40 1010.06 1009.74 1009.46 1009.24 1009.09 1009.03 1009.06 1009.19 1009.41 1009.70 1010.05 1010.43 1010.82 1011.19 1011.55 1011.87 1012.17 1012.45 1012.71 1012.96 1013.22 1013.47 1013.72 1013.95 1014.15 1014.31 1014.40 1014.43 1014.39 1014.29 1014.15 1013.98 1013.80 1013.63 1013.49 1013.38 1013.30 1013.25 1013.22 1013.19 1013.15 1013.10
1010.33 1010.04 1009.80 1009.60 1009.46 1009.37 1009.34 1009.39 1009.50 1009.68 1009.91 1010.20 1010.51 1010.84 1011.16 1011.47 1011.76 1012.03 1012.27 1012.51 1012.75 1012.99 1013.23 1013.48 1013.73 1013.96 1014.16 1014.30 1014.39 1014.41 1014.36 1014.25 1014.09 1013.92 1013.73 1013.56 1013.41 1013.29 1013.21 1013.15 1013.10 1013.06 1013.00 1012.92
1010.10 1009.90 1009.76 1009.69 1009.68 1009.71 1009.79 1009.92 1010.09 1010.29 1010.52 1010.78 1011.04 1011.30 1011.56 1011.79 1012.01 1012.22 1012.42 1012.61 1012.82 1013.03 1013.26 1013.50 1013.73 1013.95 1014.13 1014.27 1014.34 1014.35 1014.30 1014.19 1014.03 1013.85 1013.67 1013.50 1013.35 1013.24 1013.15 1013.08 1013.02 1012.96 1012.89 1012.79
1010.11 1010.01 1009.99 1010.03 1010.13 1010.26 1010.42 1010.60 1010.79 1010.99 1011.20 1011.41 1011.61 1011.81 1011.99 1012.15 1012.31 1012.46 1012.61 1012.76 1012.93 1013.12 1013.32 1013.53 1013.73 1013.93 1014.09 1014.21 1014.28 1014.28 1014.23 1014.12 1013.98 1013.81 1013.64 1013.48 1013.34 1013.22 1013.13 1013.05 1012.98 1012.90 1012.81 1012.70
1010.36 1010.37 1010.45 1010.60 1010.77 1010.97 1011.17 1011.37 1011.56 1011.74 1011.90 1012.06 1012.20 1012.32 1012.44 1012.55 1012.65 1012.75 1012.85 1012.97 1013.10 1013.24 1013.40 1013.57 1013.74 1013.90 1014.04 1014.14 1014.19 1014.20 1014.15 1014.06 1013.94 1013.80 1013.65 1013.50 1013.36 1013.24 1013.14 1013.05 1012.96 1012.86 1012.75 1012.61
1010.81 1010.92 1011.09 1011.31 1011.54 1011.77 1011.98 1012.17 1012.33 1012.47 1012.59 1012.69 1012.77 1012.84 1012.91 1012.97 1013.03 1013.09 1013.15 1013.23 1013.31 1013.41 1013.52 1013.64 1013.76 1013.87 1013.97 1014.05 1014.09 1014.09 1014.06 1014.00 1013.90 1013.78 1013.65 1013.52 1013.39 1013.27 1013.15 1013.03 1012.91 1012.79 1012.64 1012.49
1011.37 1011.57 1011.81 1012.08 1012.33 1012.57 1012.77 1012.93 1013.05 1013.15 1013.21 1013.27 1013.31 1013.34 1013.37 1013.41 1013.43 1013.46 1013.49 1013.52 1013.56 1013.60 1013.64 1013.70 1013.75 1013.81 1013.87 1013.91 1013.94 1013.95 1013.94 1013.89 1013.83 1013.74 1013.63 1013.51 1013.38 1013.25 1013.10 1012.96 1012.80 1012.63 1012.45 1012.26
1011.96 1012.23 1012.52 1012.81 1013.07 1013.29 1013.46 1013.58 1013.66 1013.71 1013.74 1013.76 1013.77 1013.79 1013.80 1013.82 1013.83 1013.83 1013.83 1013.81 1013.79 1013.76 1013.74 1013.72 1013.70 1013.70 1013.70 1013.72 1013.73 1013.74 1013.74 1013.72 1013.68 1013.62 1013.53 1013.42 1013.28 1013.13 1012.95 1012.77 1012.57 1012.36 1012.14 1011.92
1012.50 1012.81 1013.13 1013.41 1013.66 1013.85 1013.98 1014.06 1014.10 1014.12 1014.12 1014.12 1014.13 1014.14 1014.15 1014.16 1014.16 1014.14 1014.10 1014.04 1013.95 1013.85 1013.75 1013.65 1013.56 1013.49 1013.44 1013.42 1013.42 1013.42 1013.43 1013.43 1013.42 1013.38 1013.30 1013.19 1013.04 1012.86 1012.66 1012.43 1012.18 1011.93 1011.68 1011.43
1012.93 1013.26 1013.58 1013.85 1014.06 1014.22 1014.31 1014.35 1014.36 1014.35 1014.34 1014.33 1014.34 1014.35 1014.37 1014.37 1014.36 1014.32 1014.24 1014.13 1013.98 1013.81 1013.63 1013.45 1013.29 1013.15 1013.05 1013.00 1012.98 1012.98 1013.00 1013.02 1013.02 1012.99 1012.92 1012.80 1012.64 1012.44 1012.20 1011.93 1011.65 1011.36 1011.07 1010.81
1013.23 1013.56 1013.85 1014.09 1014.27 1014.38 1014.43 1014.44 1014.42 1014.40 1014.37 1014.36 1014.37 1014.38 1014.40 1014.40 1014.37 1014.30 1014.19 1014.03 1013.82 1013.58 1013.32 1013.07 1012.85 1012.66 1012.52 1012.44 1012.40 1012.40 1012.43 1012.45 1012.46 1012.44 1012.37 1012.25 1012.07 1011.84 1011.57 1011.27 1010.96 1010.65 1010.35 1010.08
1013.41 1013.71 1013.97 1014.17 1014.30 1014.37 1014.38 1014.36 1014.31 1014.26 1014.23 1014.21 1014.21 1014.21 1014.22 1014.21 1014.16 1014.06 1013.90 1013.69 1013.43 1013.13 1012.82 1012.52 1012.25 1012.02 1011.85 1011.75 1011.71 1011.71 1011.73 1011.77 1011.78 1011.76 1011.69 1011.56 1011.36 1011.12 1010.82 1010.51 1010.18 1009.86 1009.56 1009.29
1013.49 1013.75 1013.97 1014.12 1014.21 1014.22 1014.19 1014.13 1014.05 1013.98 1013.92 1013.88 1013.86 1013.85 1013.83 1013.79 1013.71 1013.57 1013.38 1013.13 1012.82 1012.49 1012.14 1011.81 1011.51 1011.26 1011.08 1010.97 1010.93 1010.93 1010.96 1010.99 1011.01 1010.98 1010.90 1010.76 1010.56 1010.30 1010.00 1009.67 1009.34 1009.03 1008.74 1008.48
1013.49 1013.71 1013.88 1013.97 1014.01 1013.98 1013.90 1013.79 1013.68 1013.57 1013.47 1013.40 1013.34 1013.30 1013.25 1013.17 1013.05 1012.88 1012.66 1012.37 1012.05 1011.69 1011.33 1010.99 1010.69 1010.44 1010.26 1010.16 1010.12 1010.12 1010.15 1010.18 1010.19 1010.16 1010.06 1009.91 1009.69 1009.43 1009.13 1008.80 1008.48 1008.18 1007.91 1007.67
1013.42 1013.58 1013.70 1013.74 1013.72 1013.64 1013.52 1013.36 1013.20 1013.05 1012.91 1012.79 1012.70 1012.61 1012.51 1012.40 1012.24 1012.04 1011.79 1011.49 1011.16 1010.81 1010.45 1010.12 1009.84 1009.61 1009.45 1009.36 1009.32 1009.32 1009.35 1009.37 1009.36 1009.31 1009.21 1009.04 1008.81 1008.54 1008.24 1007.92 1007.61 1007.33 1007.07 1006.85
1013.24 1013.35 1013.41 1013.41 1013.34 1013.21 1013.04 1012.84 1012.63 1012.43 1012.25 1012.09 1011.94 1011.81 1011.68 1011.52 1011.34 1011.12 1010.86 1010.57 1010.24 1009.91 1009.58 1009.28 1009.03 1008.83 1008.69 1008.61 1008.57 1008.57 1008.59 1008.59 1008.56 1008.49 1008.35 1008.17 1007.92 1007.64 1007.34 1007.03 1006.73 1006.45 1006.21 1006.01
1012.90 1012.97 1012.99 1012.93 1012.82 1012.65 1012.44 1012.21 1011.96 1011.73 1011.50 1011.31 1011.13 1010.95 1010.79 1010.61 1010.41 1010.19 1009.94 1009.66 1009.36 1009.06 1008.78 1008.51 1008.29 1008.12 1008.01 1007.93 1007.90 1007.89 1007.88 1007.85 1007.79 1007.68 1007.51 1007.30 1007.03 1006.74 1006.42 1006.11 1005.81 1005.54 1005.30 1005.10
1012.37 1012.40 1012.37 1012.29 1012.14 1011.94 1011.71 1011.45 1011.18 1010.93 1010.68 1010.46 1010.26 1010.07 1009.89 1009.71 1009.52 1009.30 1009.07 1008.82 1008.57 1008.31 1008.06 1007.84 1007.66 1007.51 1007.40 1007.33 1007.29 1007.25 1007.21 1007.14 1007.04 1006.88 1006.68 1006.43 1006.13 1005.81 1005.48 1005.15 1004.84 1004.56 1004.32 1004.11
1011.62 1011.62 1011.56 1011.45 1011.28 1011.07 1010.83 1010.57 1010.30 1010.04 1009.80 1009.58 1009.38 1009.20 1009.03 1008.85 1008.68 1008.49 1008.29 1008.08 1007.86 1007.65 1007.44 1007.26 1007.10 1006.97 1006.86 1006.78 1006.72 1006.65 1006.56 1006.45 1006.29 1006.09 1005.84 1005.55 1005.21 1004.86 1004.50 1004.15 1003.82 1003.53 1003.26 1003.04
Thickness
5525 5529 5528 5525 5523 5521 5515 5515 5511 5525 5529 5535 5533 5533 5533 5532 5530 5528 5526 5524 5522 5519 5518 5516 5515 5513 5512 5509 5508 5506 5503 5501 5500 5499 5498 5496 5494 5493 5492 5491 5490 5489 5488 5486
5516 5523 5523 5519 5520 5519 5517 5517 5517 5520 5522 5530 5530 5528 5526 5524 5522 5520 5519 5517 5515 5513 5511 5509 5507 5505 5503 5501 5499 5497 5494 5492 5491 5490 5488 5486 5485 5484 5482 5481 5480 5478 5477 5476
5501 5516 5515 5510 5524 5521 5518 5518 5515 5510 5517 5523 5520 5520 5517 5515 5513 5512 5511 5508 5506 5504 5502 5501 5499 5497 5494 5492 5490 5488 5485 5484 5482 5481 5479 5477 5475 5474 5472 5470 5469 5468 5466 5465
5487 5495 5491 5520 5530 5526 5517 5516 5514 5513 5515 5515 5512 5510 5509 5506 5503 5501 5501 5499 5497 5494 5493 5491 5490 5488 5486 5483 5481 5478 5476 5474 5473 5471 5469 5467 5465 5463 5461 5460 5459 5458 5456 5455
5473 5477 5495 5515 5517 5513 5507 5506 5509 5507 5506 5504 5502 5499 5497 5496 5493 5490 5489 5488 5486 5484 5482 5481 5479 5478 5476 5473 5471 5469 5467 5465 5463 5461 5459 5457 5455 5453 5451 5450 5449 5448 5447 5445
5463 5464 5475 5502 5502 5503 5498 5488 5498 5496 5493 5491 5487 5479 5482 5485 5483 5480 5479 5477 5474 5472 5471 5469 5468 5467 5465 5462 5460 5459 5458 5456 5454 5452 5449 5447 5445 5443 5442 5441 5439 5438 5437 5436
5450 5455 5472 5490 5488 5487 5475 5477 5484 5484 5481 5477 5473 5470 5471 5472 5470 5468 5467 5466 5464 5461 5459 5458 5457 5455 5453 5451 5450 5449 5448 5446 5445 5442 5440 5438 5436 5434 5432 5431 5430 5428 5427 5427
5445 5444 5458 5475 5472 5468 5469 5473 5472 5470 5467 5464 5462 5462 5461 5460 5459 5457 5456 5455 5453 5450 5448 5447 5446 5444 5442 5440 5440 5439 5437 5436 5434 5432 5431 5429 5426 5425 5423 5421 5419 5418 5417 5416
5449 5454 5463 5464 5462 5461 5461 5459 5458 5455 5454 5452 5451 5450 5450 5449 5447 5446 5445 5443 5441 5439 5437 5436 5435 5433 5431 5430 5429 5428 5426 5425 5423 5422 5421 5419 5417 5415 5413 5412 5409 5408 5406 5406
5442 5451 5455 5453 5452 5450 5449 5446 5446 5444 5443 5441 5439 5439 5438 5436 5435 5435 5434 5432 5430 5428 5427 5426 5424 5423 5422 5421 5420 5418 5416 5414 5413 5411 5410 5409 5407 5406 5404 5402 5400 5399 5397 5396
5428 5437 5439 5441 5439 5437 5436 5435 5433 5432 5431 5429 5428 5427 5426 5425 5424 5423 5422 5420 5419 5417 5416 5415 5414 5413 5413 5411 5409 5407 5405 5404 5402 5401 5400 5399 5398 5396 5395 5394 5393 5391 5390 5388
5421 5428 5424 5426 5427 5426 5423 5421 5421 5419 5418 5417 5416 5415 5414 5413 5412 5411 5410 5409 5408 5407 5406 5406 5405 5404 5403 5401 5398 5396 5395 5393 5392 5390 5390 5388 5387 5387 5387 5386 5385 5384 5383 5381
5419 5419 5416 5416 5416 5414 5412 5411 5410 5408 5406 5405 5405 5404 5403 5402 5401 5400 5399 5398 5398 5397 5397 5396 5395 5395 5393 5391 5389 5387 5385 5384 5382 5381 5380 5378 5377 5376 5376 5377 5376 5375 5374 5374
5407 5405 5404 5405 5402 5402 5400 5399 5398 5396 5395 5394 5393 5393 5392 5391 5390 5390 5389 5388 5388 5388 5387 5386 5386 5386 5385 5383 5381 5378 5377 5375 5374 5372 5370 5369 5368 5367 5366 5365 5365 5366 5366 5365
5395 5394 5392 5392 5391 5389 5388 5386 5384 5383 5383 5383 5382 5381 5380 5379 5379 5380 5379 5379 5378 5378 5377 5377 5376 5376 5376 5374 5371 5370 5368 5366 5364 5363 5362 5360 5359 5358 5357 5357 5357 5357 5357 5357
5382 5382 5381 5379 5377 5376 5374 5373 5372 5372 5372 5371 5371 5370 5370 5369 5369 5369 5369 5369 5367 5368 5368 5367 5367 5367 5366 5364 5362 5361 5360 5359 5357 5354 5353 5352 5351 5350 5349 5349 5348 5348 5349 5349
5368 5367 5366 5365 5364 5364 5363 5362 5362 5361 5361 5361 5360 5360 5359 5359 5359 5359 5360 5360 5359 5359 5359 5358 5358 5358 5357 5356 5354 5352 5351 5350 5349 5347 5345 5344 5343 5342 5341 5341 5340 5341 5341 5341
5358 5357 5356 5354 5353 5353 5353 5353 5352 5351 5351 5351 5351 5350 5349 5349 5349 5350 5350 5350 5350 5350 5350 5350 5350 5349 5349 5347 5346 5344 5343 5342 5340 5339 5338 5337 5336 5335 5334 5333 5333 5333 5334 5334
5348 5347 5346 5346 5345 5344 5343 5343 5342 5342 5342 5342 5341 5340 5340 5340 5340 5340 5340 5340 5340 5341 5343 5343 5343 5341 5340 5339 5338 5337 5335 5334 5333 5332 5331 5331 5330 5329 5328 5327 5327 5327 5327 5327
5337 5337 5337 5337 5336 5335 5334 5334 5334 5333 5333 5332 5331 5330 5330 5331 5330 5330 5330 5331 5332 5333 5334 5334 5334 5333 5332 5331 5331 5329 5328 5328 5327 5326 5325 5324 5324 5323 5322 5321 5321 5321 5321 5321
5327 5328 5327 5327 5327 5327 5326 5325 5324 5323 5323 5323 5321 5321 5321 5322 5321 5320 5320 5322 5326 5325 5325 5326 5325 5325 5324 5324 5324 5323 5322 5321 5321 5320 5320 5319 5318 5318 5317 5316 5316 5316 5316 5315
5318 5318 5318 5318 5317 5317 5318 5317 5316 5315 5314 5314 5314 5313 5312 5313 5313 5313 5313 5314 5316 5317 5317 5317 5317 5317 5317 5318 5317 5317 5316 5316 5315 5315 5314 5314 5313 5312 5312 5312 5311 5311 5310 5310
5309 5309 5310 5309 5309 5309 5309 5309 5308 5307 5307 5307 5306 5306 5305 5305 5305 5304 5306 5308 5308 5309 5309 5309 5310 5311 5311 5311 5310 5310 5310 5310 5310 5309 5309 5309 5308 5308 5307 5307 5306 5306 5305 5305
5301 5301 5301 5301 5300 5299 5299 5301 5300 5300 5300 5300 5300 5299 5298 5297 5298 5299 5299 5300 5301 5301 5301 5302 5304 5304 5304 5303 5303 5303 5303 5304 5304 5303 5303 5303 5302 5302 5302 5302 5301 5301 5300 5300
5292 5292 5292 5291 5291 5292 5293 5293 5292 5292 5292 5293 5293 5293 5292 5292 5291 5293 5292 5292 5293 5293 5293 5295 5296 5297 5296 5296 5296 5296 5297 5297 5297 5297 5297 5297 5297 5297 5296 5296 5296 5295 5295 5295
5284 5284 5285 5285 5285 5285 5285 5284 5284 5285 5285 5286 5287 5287 5286 5286 5285 5285 5285 5285 5285 5286 5286 5286 5287 5288 5288 5289 5289 5290 5290 5291 5291 5291 5291 5291 5291 5291 5291 5290 5290 5290 5290 5290
5277 5277 5277 5278 5279 5278 5277 5277 5277 5278 5278 5278 5278 5279 5279 5278 5278 5278 5277 5277 5278 5278 5279 5279 5280 5281 5282 5282 5283 5284 5284 5285 5285 5285 5285 5286 5286 5286 5286 5285 5285 5285 5285 5285